Yatton Keynell, United Kingdom

10:47 PM GMT on March 24, 2019 (GMT +0000)
Yatton Keynell

Weather History for 03740 - May, 2011

Change the Weather History Date:

Saturday, May 21, 2011

  Actual Average Record
Temperature  
Mean Temperature 54 °F -  
Max Temperature 64 °F 64 °F - ()
Min Temperature 43 °F 48 °F - ()
Degree Days  
Heating Degree Days 12    
Growing Degree Days 4 (Base 50)    
Moisture  
Dew Point 46 °F    
Average Humidity 73    
Maximum Humidity 93    
Minimum Humidity 51    
Precipitation  
Precipitation 0.00 in 0.07 in - ()
Sea Level Pressure  
Sea Level Pressure 30.07 in    
Wind  
Wind Speed 8 mph ()    
Max Wind Speed 15 mph    
Max Gust Speed -    
Visibility 8.5 miles    
Events      
T = Trace of Precipitation, MM = Missing Value Source: Averaged Metar Reports

Daily Weather History Graph

Daily Weather History Graph

Search for Another Location

Airport or City:

Astronomy

May. 21, 2011 Rise Set
Actual Time 5:08 AM BST 9:01 PM BST
Civil Twilight 4:25 AM BST 9:44 PM BST
Nautical Twilight 3:25 AM BST 10:44 PM BST
Astronomical Twilight 1:40 AM BST 12:38 AM BST
Moon 12:14 AM BST (5/21) 8:50 AM BST (5/21)
Length of Visible Light 17h 18m
Length of Day
15h 53m
Waning Gibbous, 81% of the Moon is Illuminated
May 21
Waning Gibbous
May 24
Last Quarter
Jun 1
New
Jun 9
First Quarter
Jun 15
Full

Hourly Weather History & Observations

Time (BST) Temp. Windchill Dew Point Humidity Pressure Visibility Wind Dir Wind Speed Gust Speed Precip Events Conditions
12:50 AM 47 °F - 44 °F 87% 30.18 in 16 mi SSW 4.6 mph - -   Clear
12:50 AM 48.2 °F - 44.6 °F 87% 30.15 in - SSW 4.6 mph - N/A   Clear
1:50 AM 46.4 °F 44.3 °F 44.6 °F 93% 30.15 in - SSW 4.6 mph - N/A   Clear
2:50 AM 44.6 °F 42.2 °F 42.8 °F 93% 30.15 in - SSW 4.6 mph - N/A   Clear
3:50 AM 45 °F - 42 °F 85% 30.17 in 19 mi South 4.6 mph - -   Scattered Clouds
3:50 AM 44.6 °F 42.2 °F 42.8 °F 93% 30.15 in - South 4.6 mph - N/A   Clear
4:50 AM 44.6 °F 42.2 °F 41.0 °F 87% 30.12 in - South 4.6 mph - N/A   Clear
5:50 AM 44.6 °F 42.2 °F 41.0 °F 87% 30.12 in 6.2 mi South 4.6 mph - N/A   Scattered Clouds
6:50 AM 46 °F - 43 °F 85% 30.16 in 19 mi South 6.9 mph - -   Scattered Clouds
6:50 AM 46.4 °F 42.9 °F 42.8 °F 87% 30.12 in 6.2 mi South 6.9 mph - N/A   Scattered Clouds
7:50 AM 50.0 °F - 44.6 °F 82% 30.12 in 6.2 mi South 5.8 mph - N/A   Unknown
8:50 AM 55.4 °F - 46.4 °F 72% 30.12 in 6.2 mi South 9.2 mph - N/A   Mostly Cloudy
9:50 AM 59 °F - 46 °F 52% 30.14 in 25 mi SSW 11.5 mph - -   Scattered Clouds
9:50 AM 59.0 °F - 46.4 °F 63% 30.12 in 6.2 mi SSW 11.5 mph - N/A   Partly Cloudy
10:50 AM 59.0 °F - 46.4 °F 63% 30.12 in 6.2 mi SSW 13.8 mph - N/A   Scattered Clouds
11:50 AM 60.8 °F - 48.2 °F 63% 30.09 in 6.2 mi SW 10.4 mph - N/A   Mostly Cloudy
12:50 PM 62 °F - 49 °F 51% 30.09 in 25 mi SSW 12.7 mph - -   Mostly Cloudy
12:50 PM 62.6 °F - 48.2 °F 59% 30.09 in 6.2 mi SSW 12.7 mph - N/A   Mostly Cloudy
1:50 PM 64.4 °F - 50.0 °F 59% 30.06 in 6.2 mi South 15.0 mph - N/A   Mostly Cloudy
2:50 PM 60.8 °F - 50.0 °F 68% 30.06 in 6.2 mi South 11.5 mph - N/A   Scattered Clouds
3:50 PM 63 °F - 50 °F 53% 30.04 in 25 mi SSW 12.7 mph - -   Partly Cloudy
3:50 PM 62.6 °F - 50.0 °F 63% 30.04 in 6.2 mi SSW 12.7 mph - N/A   Mostly Cloudy
4:50 PM 60.8 °F - 50.0 °F 68% 30.01 in 6.2 mi SSW 15.0 mph - N/A   Mostly Cloudy
5:50 PM 60.8 °F - 48.2 °F 63% 30.01 in 6.2 mi SSW 13.8 mph - N/A   Scattered Clouds
6:50 PM 60 °F - 47 °F 51% 29.99 in 25 mi South 13.8 mph - -   Scattered Clouds
6:50 PM 59.0 °F - 46.4 °F 63% 29.98 in 6.2 mi South 13.8 mph - N/A   Partly Cloudy
7:50 PM 57.2 °F - 46.4 °F 67% 29.98 in - SSW 11.5 mph - N/A   Clear
8:50 PM 55.4 °F - 48.2 °F 77% 29.95 in - South 12.7 mph - N/A   Clear
9:50 PM 54 °F - 47 °F 72% 29.96 in 19 mi South 13.8 mph - -   Mostly Cloudy
9:50 PM 53.6 °F - 48.2 °F 82% 29.95 in 6.2 mi South 13.8 mph - N/A   Mostly Cloudy
10:50 PM 53.6 °F - 48.2 °F 82% 29.92 in 6.2 mi South 10.4 mph - N/A   Mostly Cloudy
11:50 PM 53.6 °F - 50.0 °F 88% 29.89 in 6.2 mi South 11.5 mph - N/A   Mostly Cloudy